sat.trackr.live / text

‹ back to catalog

STARLINK-3072

NORAD 49153 · 2021-082Z

PAYLOAD ACTIVE UNKNOWN

§ Identity

Operator
Country
US
Launch date
2021-09-14
Launch site
AFWTR
Launch vehicle
Mass (kg)
RCS (m²)

Purposes: comms

External: N2YO · Heavens-Above · Gunter

§ Orbital elements

Epoch: 2026-09-20T00:56:31.502400Z

Period
96.11 min
Inclination
69.9981°
Eccentricity
0.0002806
Mean motion
14.98330778 rev/d
Perigee alt
570.1 km
Apogee alt
574.0 km
Semi-major
6,950.2 km
B*
9.1847e-5
RAAN
124.4321°
Arg perigee
269.8897°
Mean anomaly
90.1941°
Rev number
27,728

§ Raw data

STARLINK-30721 49153U 21082Z   26263.03925350  .00001003  00000+0  91847-4 0  99972 49153  69.9981 124.4321 0002806 269.8897  90.1941 14.98330778277288

JSON: /api/v1/satellites/49153 · /tle

For live sub-satellite position, see the globe view (requires WebGL).

§ Visibility from observer

Set your observer location to see the next 7 days of passes ≥ 10°. The values pass through the URL so the page stays shareable.

No JS? Fill the form by hand. The geolocation button needs JavaScript.